FENGYUN 1C DEB, 30572

Orbit data source: Space-Track

FENGYUN 1C DEB, 30572 is space debris in SSO originally from a launch on Mon, 10 May 1999 UTC launched from the Taiyaun Space Center, China (TSC). Fengyun 1C debris stems from the Chinese weather satellite Fengyun-1C, which was intentionally destroyed by a Chinese anti-satellite missile in 2007. This event dramatically increased the amount of space debris, with thousands of trackable fragments posing hazards to satellites and human spaceflight. The Fengyun 1C debris cloud has become a focal point in discussions about space sustainability and the need for international regulations to prevent the creation of new debris.

Loading next visibility...
Identifier
30572, 1999-025ALN
Orbit
SSO
Country
Flag of CNCN / PRC
Related business
Manufacturer
Unknown
Mission
Spacecraft
Bus & Motor
Unknown
Mass
Unknown
Launch date (UTC)
1999-05-10 (27 years ago)
Launch vehicle
Unknown
Launch site
Taiyaun Space Center, China (TSC)
Object type
Payload
Rocket body
Debris
Shape & HBR
Unknown shape, 0.1 m
Radar Cross Section
Small (<0.1 m²)

Expand to show TLE details & history
Last TLE update: 17 hours ago

TLE from 17 hours ago
0 FENGYUN 1C DEB
1 30572U 99025ALN 26123.67546468  .00000395  00000-0  25205-3 0  9996
2 30572  98.7532 154.4007 0020843 251.2452 221.8450 14.09052034987602
Epoch: 2026-05-03T16:12Z
TLE epoch observation values (Epoch: 2026-05-03T16:12:40.148Z)
Latitude
65.62646°
Longitude
-110.58342°
Altitude
885.172 km
Speed
7.41 km/s
True Right ascension
23h 36m 38s
True Declination
65° 29' 57"
Sunlit
Object was in daylight at epoch
Visualization orbit readout
Latitude
Unknown
Longitude
Unknown
Altitude
Unknown
Speed
Unknown
Apparent Right ascension
Unknown
Apparent Declination
Unknown
Sunlit
N/A
Visualization observer readout
Local Sidereal Time
17:27:16
Azimuth
Unknown
Elevation
Unknown
Doppler factor
Unknown
Orbital elements
Apogee altitude
874.879 km
Perigee altitude
844.707 km
Semi-major axis
7,237.93 km
Eccentricity
0.00208
Inclination
98.7532°
RAAN
154.4007°
Arg. of periapsis
251.2452°
True anomaly
221.68597°
Mean anomaly
221.845°
Eccentric anomaly
221.76546°
Mean motion
3.5247 °/min
Orbital period
102.14 mins
BSTAR
0.00025205
Loading maneuver chart data...
Computing Atmospheric mass density...

Documentation

Showing up to 5 results
|